Overview Statistics Trail Chart Weather Telemetry Raw packets
 

This is the latest recevied weather packets stored in our database for station/object KE5QKR. If no packets are shown the sender has not sent any weather packets the latest 10 day(s).

<< 103 104 105 106 107 108 >>
Time Temp. Humidity Pressure Rain* Wind** Luminosity Snow
1777123414 17.22° C 99% 1008.7 hPa 0 mm - 6 W/m² -
1777123110 17.22° C 99% 1008.6 hPa 0 mm - 6 W/m² -
1777122806 17.22° C 99% 1008.5 hPa 0 mm - 6 W/m² -
1777122502 17.22° C 99% 1008.3 hPa 0 mm - 5 W/m² -
1777122199 17.22° C 99% 1007.9 hPa 0 mm - 5 W/m² -
1777121895 17.22° C 99% 1007.9 hPa 0 mm - 4 W/m² -
1777121591 17.22° C 99% 1007.4 hPa 0 mm - 4 W/m² -
1777121287 17.22° C 99% 1007.6 hPa 0 mm - 5 W/m² -
1777120984 17.22° C 99% 1007.7 hPa 0 mm - 4 W/m² -
1777120680 17.22° C 99% 1008.4 hPa 0 mm - 3 W/m² -
1777120376 17.22° C 99% 1008.8 hPa 0 mm - 2 W/m² -
1777120072 17.22° C 99% 1008.6 hPa 1.78 mm - 2 W/m² -
1777119768 17.22° C 99% 1008.4 hPa 1.78 mm - 2 W/m² -
1777119464 17.22° C 99% 1008.6 hPa 0 mm - 1 W/m² -
1777119164 17.22° C 99% 1008.2 hPa 1.78 mm - 1 W/m² -
1777118859 17.22° C 99% 1007.8 hPa 3.05 mm - 1 W/m² -
1777118556 17.22° C 99% 1008.8 hPa 1.27 mm - 0 W/m² -
1777118255 17.22° C 99% 1009.4 hPa 3.05 mm - 0 W/m² -
1777117953 17.22° C 99% 1010.1 hPa 3.05 mm - 0 W/m² -
1777117650 17.22° C 99% 1010.2 hPa 4.83 mm - 0 W/m² -
1777117348 17.22° C 99% 1010.4 hPa 8.89 mm - 0 W/m² -
1777117043 17.22° C 99% 1010.3 hPa 13.72 mm - 0 W/m² -
1777116738 17.22° C 99% 1010.2 hPa 20.32 mm - 0 W/m² -
1777116434 17.22° C 99% 1010.5 hPa 23.88 mm - 0 W/m² -
1777116130 17.22° C 99% 1010.5 hPa 28.7 mm - 0 W/m² -

* Rain latest hour (hover to see other rain measurements)
** Current wind speed in m/s (hover to see current wind gust speed)